EDT,Max TemperatureF,Mean TemperatureF,Min TemperatureF,Max Dew PointF,MeanDew PointF,Min DewpointF,Max Humidity, Mean Humidity, Min Humidity, Max Sea Level PressureIn, Mean Sea Level PressureIn, Min Sea Level PressureIn, Max VisibilityMiles, Mean VisibilityMiles, Min VisibilityMiles, Max Wind SpeedMPH, Mean Wind SpeedMPH, Max Gust SpeedMPH,PrecipitationIn, CloudCover, Events, WindDirDegrees
2013-8-1,79,66,55,65,60,54,100,88,58,30.06,29.96,29.87,10,8,2,15,3,20,0.32,5,Rain,193
2013-8-2,81,72,63,63,60,52,96,76,38,29.89,29.84,29.81,10,10,4,15,2,28,0.31,5,Rain-Thunderstorm,256
2013-8-3,80,68,57,61,57,49,100,85,35,29.88,29.85,29.80,10,4,0,14,2,22,0.00,4,Fog,263
2013-8-4,78,65,53,59,54,51,96,72,40,29.93,29.85,29.81,10,10,2,13,3,34,0.18,2,Rain-Thunderstorm,313
2013-8-5,75,62,50,52,46,35,93,63,27,30.07,30.00,29.93,10,10,10,14,5,25,0.01,0,,329
2013-8-6,77,62,46,57,49,44,97,68,35,30.16,30.13,30.08,10,10,10,10,2,,0.00,0,,186
2013-8-7,79,66,54,61,56,48,97,69,35,30.19,30.15,30.11,10,10,2,14,4,17,0.00,4,,174
2013-8-8,80,72,66,70,66,60,97,82,68,30.09,30.04,30.01,10,10,5,13,7,17,0.00,7,,175
2013-8-9,75,70,66,73,70,66,100,93,87,30.01,29.87,29.77,10,6,0,13,6,24,2.01,7,Fog-Rain,173
2013-8-10,80,70,57,66,57,49,100,68,37,30.04,29.92,29.83,10,9,1,16,5,24,0.00,0,,272
2013-8-11,78,63,48,58,51,48,97,70,35,30.11,30.07,30.02,10,10,10,9,2,,0.00,1,,281
2013-8-12,81,67,55,63,56,51,97,71,39,30.05,29.99,29.93,10,10,10,8,1,,0.00,2,,232
2013-8-13,72,66,61,67,64,60,97,91,81,29.93,29.79,29.70,10,9,3,8,2,,0.22,7,Rain,170
2013-8-14,72,62,52,64,54,48,100,75,46,29.99,29.79,29.70,10,8,1,17,4,29,0.00,2,,292
2013-8-15,73,60,46,52,47,45,100,74,35,30.10,30.07,30.01,10,8,0,13,2,20,0.00,2,Fog,277
2013-8-16,78,66,54,57,51,46,93,58,32,30.22,30.17,30.14,10,10,10,12,3,16,0.00,1,,297
2013-8-17,82,64,48,60,53,47,97,71,32,30.30,30.27,30.23,10,10,8,6,1,,0.01,1,,285
2013-8-18,78,66,54,63,58,53,97,78,50,30.29,30.22,30.11,10,10,8,9,1,,0.00,0,,196
2013-8-19,79,68,57,62,58,56,100,82,48,30.11,30.06,29.99,10,6,0,9,1,,0.00,1,Fog,270
2013-8-20,84,68,53,62,56,52,100,85,38,30.13,30.06,30.02,10,5,0,12,1,20,0.00,1,Fog,290
2013-8-21,87,71,55,64,59,55,97,74,39,30.18,30.12,30.04,10,8,2,9,1,,0.00,0,,261
2013-8-22,84,70,57,69,61,55,100,88,51,30.06,29.99,29.85,10,5,0,13,1,21,0.00,2,Fog,188
2013-8-23,80,70,55,67,55,49,90,61,37,30.15,29.99,29.86,10,10,10,17,6,23,0.00,1,,347
2013-8-24,79,62,46,49,47,45,96,92,83,30.36,30.29,30.18,10,9,1,7,1,,0.00,0,,293
2013-8-25,81,63,46,59,53,42,87,53,28,30.40,30.33,30.20,10,9,1,10,1,,0.00,2,,212
2013-8-26,78,70,61,67,62,56,97,80,60,30.19,30.03,29.89,10,10,4,12,3,,0.12,7,Rain,218
2013-8-27,84,75,68,70,67,64,96,78,54,29.91,29.88,29.84,10,9,4,7,2,,0.09,5,Rain,352
2013-8-28,84,73,64,71,67,62,100,87,49,29.96,29.90,29.86,10,6,0,9,1,,0.01,5,Fog-Rain-Thunderstorm,176
2013-8-29,71,66,62,66,62,59,97,88,78,30.08,30.04,29.94,10,8,1,14,5,17,0.59,8,Rain-Thunderstorm,48
2013-8-30,82,72,62,68,63,59,97,81,54,30.04,29.93,29.84,10,10,7,9,2,,0.00,5,,181
2013-8-31,79,72,66,72,70,64,100,89,78,29.84,29.81,29.79,7,6,4,12,4,17,0.02,6,Rain-Thunderstorm,185